Location: Degersen
(52.2871°N, 9.5716°E)
Time: 00:20:06
(UTC+00:00)

Cosmos 1295 Rocket - Pass Details

Date: 20 January 2026
Orbit: 942 x 994 km, 82.9° (Epoch: 9 February)

Event Time Altitude Azimuth Distance (km) Brightness Sun altitude
Rises 04:44:02 0° 197° (SSW) 3,694 7.4 -23.1°
Reaches altitude 10° 04:46:34 10° 200° (SSW) 2,745 6.7 -22.8°
Maximum altitude 04:52:51 67° 283° (WNW) 1,062 4.4 -21.8°
Drops below altitude 10° 04:59:06 10° 7° (N) 2,733 6.8 -20.9°
Sets 05:01:38 0° 10° (N) 3,677 7.6 -20.5°
